EW2353 Weather Reports


Display with metric or nautical units.
time (UTC)temp
F
wind
direction
speed
MPH
gust
MPH
rain 1hr
in
rain 24hr
in
rain mn
in
humidity
%
barometer
mb
20260505011315 68 236 2.0 6.0 0.00 0.03 0.03 62 1005.3
20260505010811 69 212 4.0 8.0 0.00 0.03 0.03 62 1005.3
20260505010324 69 232 4.0 8.0 0.00 0.03 0.03 61 1005.3
20260505005818 69 221 4.0 9.0 0.00 0.03 0.03 61 1005.3
20260505005350 69 224 5.0 9.0 0.00 0.03 0.03 61 1005.2
20260505004822 69 178 5.0 8.0 0.00 0.03 0.03 61 1005.3
20260505004315 69 214 4.0 7.0 0.00 0.03 0.03 61 1005.3
20260505003828 69 224 3.0 8.0 0.00 0.03 0.03 61 1005.4
20260505003320 70 205 3.0 9.0 0.00 0.03 0.03 60 1005.3
20260505002813 70 228 4.0 9.0 0.00 0.03 0.03 59 1005.4
20260505002330 71 205 5.0 13.0 0.00 0.03 0.03 58 1005.3
20260505001823 71 198 6.0 13.0 0.00 0.03 0.03 57 1005.3
20260505001316 71 210 6.0 12.0 0.00 0.03 0.03 56 1005.3
20260505000846 72 217 6.0 12.0 0.00 0.03 0.03 56 1005.3
20260505000318 72 203 6.0 10.0 0.00 0.03 0.03 56 1005.3
20260504235830 72 200 5.0 12.0 0.00 0.03 0.03 55 1005.4
20260504235322 73 218 6.0 13.0 0.00 0.03 0.03 54 1005.5
20260504234815 73 207 7.0 15.0 0.00 0.03 0.03 53 1005.5
20260504234312 74 213 6.0 15.0 0.00 0.03 0.03 53 1005.5
20260504233825 74 247 8.0 16.0 0.00 0.03 0.03 51 1005.6
20260504233317 74 206 9.0 16.0 0.00 0.03 0.03 51 1005.7
20260504232811 74 213 8.0 19.0 0.00 0.03 0.03 50 1005.7
20260504232323 74 203 9.0 19.0 0.00 0.03 0.03 50 1005.8
20260504231816 74 199 8.0 16.0 0.00 0.03 0.03 50 1005.9
20260504231329 74 214 7.0 16.0 0.00 0.03 0.03 51 1005.9
20260504230822 74 244 6.0 19.0 0.00 0.03 0.03 52 1006.0
20260504230319 73 197 9.0 19.0 0.00 0.03 0.03 51 1006.1
20260504225812 74 216 7.0 20.0 0.00 0.03 0.03 50 1006.1
20260504225325 74 208 9.0 20.0 0.00 0.03 0.03 49 1006.1
20260504224838 74 198 10.0 19.0 0.00 0.03 0.03 49 1006.1
20260504224330 74 243 12.0 18.0 0.00 0.03 0.03 50 1006.1
20260504223822 74 198 6.0 13.0 0.00 0.03 0.03 56 1006.3
20260504223314 74 210 7.0 13.0 0.00 0.03 0.03 56 1006.2
20260504222823 74 189 3.0 7.0 0.00 0.03 0.03 59 1006.3
20260504222315 74 133 3.0 6.0 0.00 0.03 0.03 58 1006.4
20260504221811 74 219 2.0 8.0 0.00 0.03 0.03 57 1006.5
20260504221324 74 221 2.0 8.0 0.00 0.03 0.03 57 1006.5
20260504220817 73 193 3.0 6.0 0.00 0.03 0.03 58 1006.6
20260504220330 73 219 2.0 5.0 0.00 0.03 0.03 59 1006.6
20260504215843 73 214 3.0 5.0 0.00 0.03 0.03 56 1006.6
20260504215315 73 215 1.0 5.0 0.00 0.03 0.03 56 1006.6
20260504214825 72 248 1.0 6.0 0.00 0.03 0.03 57 1006.6
20260504214318 72 211 2.0 7.0 0.00 0.03 0.03 57 1006.6
20260504213814 72 199 3.0 9.0 0.00 0.03 0.03 56 1006.5
20260504213327 72 262 3.0 9.0 0.00 0.03 0.03 57 1006.6
20260504212821 72 252 4.0 8.0 0.00 0.03 0.03 57 1006.5
20260504212333 72 233 4.0 11.0 0.00 0.03 0.03 56 1006.7
20260504211825 73 193 4.0 11.0 0.00 0.03 0.03 58 1007.1
20260504211317 73 184 4.0 9.0 0.00 0.03 0.03 57 1007.2
20260504210827 72 249 4.0 12.0 0.00 0.03 0.03 58 1007.4
20260504210319 72 269 6.0 13.0 0.00 0.03 0.03 57 1007.5
20260504205813 72 236 8.0 15.0 0.00 0.03 0.03 58 1007.6
20260504205329 72 274 10.0 15.0 0.00 0.03 0.03 58 1007.6
20260504204822 72 253 8.0 13.0 0.00 0.03 0.03 58 1007.7
20260504204315 72 211 7.0 12.0 0.00 0.03 0.03 58 1007.7
20260504203828 72 241 7.0 11.0 0.00 0.03 0.03 58 1007.7
20260504203320 72 231 6.0 12.0 0.00 0.03 0.03 59 1007.7
20260504202813 71 218 6.0 12.0 0.00 0.03 0.03 62 1007.7
20260504202326 70 233 8.0 15.0 0.00 0.03 0.03 62 1007.8
20260504201819 70 260 9.0 15.0 0.00 0.03 0.03 64 1008.0
20260504201316 70 252 7.0 11.0 0.00 0.03 0.03 64 1008.1
20260504200826 69 240 6.0 13.0 0.00 0.03 0.03 67 1008.2
20260504200318 69 242 8.0 15.0 0.01 0.03 0.03 67 1008.2
20260504195810 69 216 5.0 12.0 0.01 0.03 0.03 69 1008.2
20260504195323 69 212 6.0 12.0 0.01 0.03 0.03 70 1008.2
20260504194816 69 238 4.0 9.0 0.02 0.03 0.03 72 1008.3
20260504194329 69 208 5.0 9.0 0.02 0.03 0.03 73 1008.2
20260504193822 67 240 3.0 9.0 0.03 0.03 0.03 80 1008.3
20260504193319 66 199 4.0 8.0 0.03 0.03 0.03 78 1008.3
20260504192832 65 220 2.0 6.0 0.03 0.03 0.03 80 1008.3
20260504192324 64 252 4.0 9.0 0.03 0.03 0.03 81 1008.5
20260504191816 64 219 4.0 9.0 0.03 0.03 0.03 81 1008.6
20260504191329 63 216 4.0 9.0 0.03 0.03 0.03 80 1008.7
20260504190822 63 240 4.0 7.0 0.03 0.03 0.03 80 1008.7
20260504190315 63 231 0.0 8.0 0.02 0.02 0.02 80 1008.2
20260504185828 63 210 4.0 13.0 0.02 0.02 0.02 79 1008.8
20260504185324 64 259 8.0 24.0 0.02 0.02 0.02 77 1009.5
20260504184837 64 251 11.0 24.0 0.01 0.01 0.01 72 1009.3
20260504184328 65 256 7.0 12.0 0.00 0.00 0.00 74 1009.3
20260504183821 65 229 6.0 9.0 0.00 0.00 0.00 72 1008.9
20260504183314 66 210 5.0 9.0 0.00 0.00 0.00 70 1009.4
20260504182827 66 240 6.0 11.0 0.00 0.00 0.00 68 1009.4
20260504182320 67 260 7.0 13.0 0.00 0.00 0.00 66 1009.4
20260504181812 67 237 7.0 13.0 0.00 0.00 0.00 65 1009.2
20260504181325 67 250 6.0 14.0 0.00 0.00 0.00 65 1009.1
20260504180822 68 276 8.0 19.0 0.00 0.00 0.00 64 1009.2
20260504180316 68 233 11.0 19.0 0.00 0.00 0.00 63 1009.0
20260504175828 68 271 8.0 16.0 0.00 0.00 0.00 63 1008.9
20260504175321 69 243 8.0 17.0 0.00 0.00 0.00 62 1008.7
20260504174814 70 236 9.0 17.0 0.00 0.00 0.00 61 1008.7
20260504174326 70 252 10.0 16.0 0.00 0.00 0.00 60 1008.6
20260504173820 70 226 6.0 16.0 0.00 0.00 0.00 63 1008.4
20260504173316 70 224 9.0 18.0 0.00 0.00 0.00 60 1008.3
20260504172850 70 226 10.0 18.0 0.00 0.00 0.00 60 1008.2
20260504172321 70 211 8.0 14.0 0.00 0.00 0.00 61 1008.1
20260504171814 70 211 7.0 13.0 0.00 0.00 0.00 63 1008.2
20260504171327 69 208 6.0 17.0 0.00 0.00 0.00 64 1008.3
20260504170840 69 207 8.0 10.0 0.00 0.00 0.00 64 1008.3
20260504170311 68 205 6.0 12.0 0.00 0.00 0.00 65 1008.4
20260504160326 66 251 5.0 9.0 0.00 0.00 0.00 67 1009.1
20260504150834 65 250 4.0 11.0 0.00 0.00 0.00 68 1009.2
20260504150325 64 212 4.0 12.0 0.00 0.00 0.00 67 1009.2
20260504141316 61 249 5.0 11.0 0.00 0.00 0.00 72 1009.2
20260504140850 61 208 6.0 11.0 0.00 0.00 0.00 72 1009.3
20260504140342 60 232 5.0 13.0 0.00 0.00 0.00 71 1009.3
20260504130320 55 176 4.0 10.0 0.00 0.00 0.00 78 1009.5
20260504120318 52 205 4.0 8.0 0.00 0.00 0.00 78 1009.7
20260504110333 51 209 3.0 7.0 0.00 0.00 0.00 75 1009.7
20260504100312 50 213 4.0 6.0 0.00 0.00 0.00 75 1009.8
20260504081825 50 229 3.0 5.0 0.00 0.00 0.00 73 1010.4
20260504081338 50 221 2.0 4.0 0.00 0.00 0.00 73 1010.4
20260504080827 50 208 2.0 5.0 0.00 0.00 0.00 73 1010.5
20260504080320 50 226 2.0 7.0 0.00 0.00 0.00 73 1010.6
20260504070347 51 200 2.0 7.0 0.00 0.00 0.00 71 1011.0
20260504050321 48 249 0.0 2.0 0.00 0.00 0.00 77 1012.3
20260504045814 47 201 0.0 2.0 0.00 0.00 0.00 77 1012.3
20260504045326 48 211 0.0 1.0 0.00 0.00 0.00 77 1012.3
20260504044819 47 211 0.0 1.0 0.00 0.00 0.00 78 1012.3
20260504044312 47 211 0.0 1.0 0.00 0.00 0.00 78 1012.3
20260504043825 47 144 0.0 0.0 0.00 0.00 0.00 79 1012.3
20260504043318 46 210 0.0 1.0 0.00 0.00 0.00 78 1012.4
20260504042810 46 210 0.0 0.0 0.00 0.00 0.00 78 1012.4
20260504042327 47 210 0.0 0.0 0.00 0.00 0.00 77 1012.5
20260504041820 47 210 0.0 0.0 0.00 0.00 0.00 76 1012.5
20260504041313 48 210 0.0 0.0 0.00 0.00 0.00 75 1012.6
20260504040825 48 210 0.0 0.0 0.00 0.00 0.00 74 1012.7
20260504040318 48 210 0.0 0.0 0.00 0.00 0.00 74 1012.7
20260504035811 49 199 0.0 1.0 0.00 0.00 0.00 73 1012.7
20260504035324 49 199 0.0 1.0 0.00 0.00 0.00 71 1012.7
20260504034816 50 224 0.0 2.0 0.00 0.00 0.00 71 1012.8
20260504034314 50 179 0.0 3.0 0.00 0.00 0.00 70 1012.8
20260504033826 50 157 0.0 3.0 0.00 0.00 0.00 70 1012.8
20260504033319 50 213 0.0 2.0 0.00 0.00 0.00 70 1012.9
20260504032812 50 211 0.0 1.0 0.00 0.00 0.00 69 1012.9
20260504032325 51 146 0.0 1.0 0.00 0.00 0.00 69 1013.0
20260504031817 51 212 0.0 1.0 0.00 0.00 0.00 68 1013.0
20260504031311 51 207 0.0 2.0 0.00 0.00 0.00 67 1013.0
20260504030823 52 228 0.0 2.0 0.00 0.00 0.00 67 1013.0
20260504030320 52 211 0.0 3.0 0.00 0.00 0.00 66 1013.1
20260504025813 52 217 1.0 3.0 0.00 0.00 0.00 66 1013.1
20260504025346 52 179 0.0 2.0 0.00 0.00 0.00 65 1013.2
20260504024818 52 192 0.0 2.0 0.00 0.00 0.00 65 1013.2
20260504024351 53 156 0.0 1.0 0.00 0.00 0.00 65 1013.2
20260504023823 53 224 0.0 1.0 0.00 0.00 0.00 64 1013.2
20260504023315 53 222 0.0 4.0 0.00 0.00 0.00 64 1013.2
20260504022828 53 214 1.0 4.0 0.00 0.00 0.00 64 1013.2
20260504022321 53 205 0.0 3.0 0.00 0.00 0.00 64 1013.2
20260504021818 54 218 1.0 3.0 0.00 0.00 0.00 63 1013.2
20260504021311 54 203 1.0 3.0 0.00 0.00 0.00 62 1013.2
20260504020824 54 252 1.0 3.0 0.00 0.00 0.00 62 1013.2
20260504020337 54 156 0.0 2.0 0.00 0.00 0.00 62 1013.1
20260504015829 54 205 0.0 2.0 0.00 0.00 0.00 62 1013.1
20260504015321 55 184 1.0 3.0 0.00 0.00 0.00 61 1013.1
20260504014814 55 148 1.0 4.0 0.00 0.00 0.00 61 1013.0
20260504014327 55 198 1.0 4.0 0.00 0.00 0.00 61 1013.0
20260504013821 55 154 2.0 5.0 0.00 0.00 0.00 59 1013.0
20260504013313 56 209 2.0 6.0 0.00 0.00 0.00 59 1013.0
20260504012826 56 221 3.0 6.0 0.00 0.00 0.00 58 1013.0
20260504012339 56 216 3.0 7.0 0.00 0.00 0.00 57 1013.0
20260504011811 56 169 4.0 7.0 0.00 0.00 0.00 56 1013.0